www.pogodaiklimat.ru

Погода и климат >> Архив погоды >> Индия >> Panjim


ПОГОДА в Panjim

  • Прогноз погоды в Panjim
  • Монитор погоды в Panjim
  • Климат города

АРХИВ ПОГОДЫ в Panjim

Время (UTC), дата Ветер
(напр.,м/с)
 
Видим.   Явления Облачность Т
(С)
Тd
(С)
f
(%)
Тe
(С)
Тes
(С)
Комфортность P
(гПа)
Po
(гПа)
Тmin
(С)
Tmax
(С)
R
(мм)
R24
(мм)
S
(см)
03 19.02 штиль 0 4000 м мгла ясно +23.0 +21.5 91 +31 +36 очень
душно
1011.9 1012.0 +21.4 +33.3
06 19.02 СВ 1 4000 м мгла 5/1 600 м
[Sc Ci sp]
+30.0 +25.2 76 +44 +60 опасность
перегрева
1012.4 1012.0
09 19.02 ЮЗ 2 4000 м мгла 1/1 600 м
[Cu hum]
+31.0 +24.8 70 +44 +57 опасность
перегрева
1009.4 1009.0
12 19.02 З 2 4000 м мгла ясно +29.4 +25.5 80 +43 +45 опасность
перегрева
1008.9 1009.0 +31.7
15 19.02 штиль 0 4000 м ясно +27.0 +24.7 87 +38 +38 очень
душно
1010.8 1011.0
18 19.02 штиль 0 4000 м 4/0
[Ci sp]
+26.0 +24.3 90 +36 +36 очень
душно
1010.7 1011.0
21 19.02 штиль 0 4000 м 4/0
[Ci sp]
+25.0 +23.8 93 +34 +34 очень
душно
1010.0 1010.0
00 20.02 СВ 1 4000 м туман 6/3 600 м
[Sc Ci sp]
+24.2 +23.9 98 +33 +33 очень
душно
1009.8 1010.0
03 20.02 штиль 0 2000 м туман ясно +24.0 +23.7 98 +33 +38 очень
душно
1011.9 1012.0 +23.0 +31.7
06 20.02 4000 м мгла 3/0
[Ci sp]
+30.4 +26.2 78 1012.4 1012.0
09 20.02 З 2 4000 м мгла ясно +31.2 +24.7 68 +44 +59 опасность
перегрева
1009.7 1010.0
12 20.02 З 2 4000 м мгла ясно +29.8 +25.6 78 +44 +45 опасность
перегрева
1008.6 1009.0 +32.0
15 20.02 С 1 4000 м 3/0
[Ci sp]
+27.0 +24.5 86 +38 +38 очень
душно
1010.5 1011.0
18 20.02 С 1 4000 м ясно +26.0 +24.0 89 +36 +36 очень
душно
1010.5 1011.0
21 20.02 штиль 0 4000 м 4/0
[Ci sp]
+24.8 +23.7 94 +34 +34 очень
душно
1009.1 1009.0
00 21.02 В 1 4000 м 4/0
[Ci sp]
+23.6 +22.7 95 +31 +31 очень
душно
1008.2 1008.0
03 21.02 штиль 0 2000 м дымка {туман} ясно +23.4 +22.8 96 +33 +38 очень
душно
1010.3 1010.0 +22.1 +32.0
06 21.02 СЗ 1 2000 м мгла {туман} ясно +30.4 +24.1 69 +42 +62 опасность
перегрева
1011.3 1011.0
09 21.02 З 2 4000 м мгла ясно +31.6 +23.9 64 +43 +58 опасность
перегрева
1007.8 1008.0
12 21.02 ЮЗ 1 4000 м мгла ясно +30.0 +24.3 72 +42 +43 опасность
перегрева
1007.0 1007.0 +32.5
15 21.02 С 1 4000 м ясно +27.0 +24.4 86 +38 +38 очень
душно
1009.3 1009.0
18 21.02 штиль 0 4000 м ясно +26.0 +24.3 90 +36 +36 очень
душно
1008.8 1009.0
21 21.02 штиль 0 4000 м ясно +24.6 +24.0 96 +34 +34 очень
душно
1008.8 1009.0
00 22.02 В 1 4000 м ясно +23.2 +22.3 95 +32 +32 очень
душно
1008.5 1009.0
03 22.02 В 1 4000 м мгла ясно +23.8 +21.7 88 +30 +35 очень
душно
1010.4 1010.0 +22.0 +32.5
06 22.02 ЮВ 2 4000 м мгла ясно +31.2 +22.1 58 +40 +56 опасность
солнечного
удара
1010.8 1011.0
09 22.02 З 2 4000 м мгла ясно +31.6 +25.1 69 +46 +60 опасность
перегрева
1007.7 1008.0
12 22.02 З 2 4000 м мгла ясно +29.6 +25.1 77 +43 +44 опасность
перегрева
1006.8 1007.0 +22.8 +32.5
15 22.02 СЗ 1 4000 м ясно +27.0 +24.7 87 +38 +38 очень
душно
1009.8 1010.0
18 22.02 штиль 0 4000 м ясно +26.0 +24.6 92 +37 +37 очень
душно
1010.8 1011.0
21 22.02 штиль 0 4000 м ясно +25.0 +24.2 95 +34 +34 очень
душно
1010.3 1010.0
00 23.02 штиль 0 1000 м туман местами ясно +24.0 +23.7 98 +33 +33 очень
душно
1008.9 1009.0
03 23.02 штиль 0 1000 м туман ясно +23.6 +23.0 96 +31 +36 очень
душно
1010.8 1011.0 +21.8 +32.5
06 23.02 ЮВ 1 4000 м мгла {туман} ясно +31.6 +18.7 46 +36 +56 опасность
солнечного
удара
1010.9 1011.0
09 23.02 З 2 4000 м мгла ясно +32.2 +22.0 55 +41 +56 опасность
перегрева
1008.4 1008.0
12 23.02 СЗ 2 4000 м мгла ясно +30.2 +22.6 64 +40 +41 очень
душно
1006.8 1007.0 +33.8
15 23.02 штиль 0 4000 м ясно +28.4 +20.9 64 +36 +36 очень
душно
1009.2 1009.0
18 23.02 штиль 0 4000 м ясно +26.2 +24.2 89 +36 +36 очень
душно
1010.0 1010.0
21 23.02 штиль 0 4000 м ясно +24.2 +22.4 90 +32 +32 очень
душно
1009.2 1009.0
00 24.02 В 2 4000 м ясно +23.0 +21.5 91 +31 +31 очень
душно
1010.0 1010.0
03 24.02 ЮВ 1 4000 м мгла ясно +23.6 +20.6 83 +29 +34 душно 1012.5 1013.0 +21.0 +33.8
06 24.02 ЮВ 1 10 км {туман} ясно +33.2 +10.5 25 +33 +52 опасность
солнечного
удара
1013.0 1013.0
09 24.02 З 2 4000 м мгла ясно +33.4 +15.1 33 +35 +50 душно 1009.0 1009.0
12 24.02 СЗ 2 4000 м мгла ясно +31.4 +18.4 46 +36 +37 очень
душно
1008.6 1009.0 +35.1
15 24.02 СЗ 1 4000 м ясно +26.8 +18.3 60 +32 +32 очень
душно
1010.8 1011.0
18 24.02 В 1 4000 м ясно +25.0 +22.7 87 +33 +33 очень
душно
1011.8 1012.0
21 24.02 В 1 4000 м ясно +22.6 +19.5 83 +29 +29 очень
душно
1010.3 1010.0
00 25.02 штиль 0 4000 м ясно +21.6 +18.1 80 +26 +26 душно 1010.3 1010.0
03 25.02 В 1 4000 м мгла ясно +23.4 +18.0 72 +29 +34 душно 1013.0 1013.0 +20.3 +35.1
06 25.02 СВ 1 4000 м мгла ясно +33.0 +11.1 26 +33 +53 опасность
солнечного
удара
1012.8 1013.0
09 25.02 З 2 10 км ясно +34.4 +16.5 34 +37 +51 опасность
солнечного
удара
1009.4 1009.0
12 25.02 З 2 10 км ясно +31.4 +17.7 44 +36 +37 очень
душно
1009.1 1009.0 +36.3
15 25.02 штиль 0 4000 м ясно +26.8 +22.4 77 +35 +35 очень
душно
1011.1 1011.0
18 25.02 штиль 0 4000 м ясно +24.6 +20.0 76 +30 +30 очень
душно
1012.1 1012.0
21 25.02 штиль 0 4000 м ясно +22.0 +18.9 83 +27 +27 душно 1010.9 1011.0

 

Местоположение метеостанции Panjim (Goa, Индия): широта 15.48 долгота 73.82 высота над уровнем моря 60 м.

В архиве по умолчанию представлена погода в Panjim за последнюю неделю. Архивные данные за месяц целиком и за предыдущие месяцы, начиная с января 2011 года, Вы можете получить, выбрав интересующий диапазон дат из раскрывающегося списка и нажав кнопку "Ввод!".

Внимание! Время в таблицах - всемирное. Для получения местного времени необходимо прибавить поправку, которая в Panjim равна 5.5 ч.

Смотрите также архив погоды в соседних городах и на ближайших метеорологических станциях:

Погода в Mormugao (Goa, Индия) (8 км)
Погода в Vengurla (Maharashtra, Индия) (48 км)
Погода в Karwar (Karnataka, Индия) (85 км)
Погода в Belgaum (Karnataka, Индия) (86 км)
Погода в Belgaum Airport (Karnataka, Индия) (95 км)
Погода в Dharwad (Karnataka, Индия) (124 км)
Погода в Kolhapur (Maharashtra, Индия) (143 км)
Погода в Honavar (Karnataka, Индия) (150 км)
Погода в Sangli (Maharashtra, Индия) (174 км)
Погода в Shirali (Karnataka, Индия) (174 км)

Пояснения к столбцам:

Ветер - указаны скорость ветра в м/с - средняя за 10 мин, порывы в срок и между сроками (в фигурных скобках) и направление, откуда дует ветер: С - северный, СВ - северо-восточный, В - восточный, ЮВ - юго-восточный, Ю - южный, ЮЗ - юго-западный, З - западный, СЗ - северо-западный.
Видимость - горизонтальная дальность видимости в метрах или километрах. При видимости от 1 до 10 км при отсутствии осадков обычно наблюдается дымка, при ухудшении видимости до 1 км и менее - туман. В сухую погоду видимость может ухудшаться дымом, пылью или мглою.
Явления - указаны атмосферные явления, наблюдавшиеся в срок или в последний час перед сроком; фигурными скобками обозначены явления, наблюдавшиеся между сроками (за 1-3 часа до срока); квадратными скобками обозначены град или гололедные отложения с указанием их диаметра в мм.
Облачность - указаны через наклонную черту общая и нижняя облачность в баллах и высота нижней границы облаков в метрах; квадратными скобками обозначены формы облаков: Ci - перистые, Cs - перисто-слоистые, Cc - перисто-кучевые, Ac - высококучевые, As - высокослоистые, Sc - слоисто-кучевые, Ns - слоисто-дождевые, Cu - кучевые, Cb - кучево-дождевые. Подробнее классификацию облаков см. в Атласе облаков (PDF).
T - Температура воздуха - температура, измеренная на высоте 2 м над землей.
Td - Температура точки росы - температура, при понижении до которой содержащийся в воздухе водяной пар достигнет насыщения.
f - Относительная влажность воздуха - влажноcть воздуха, измеренная на высоте 2 м над землей.
Te - Эффективная температура - температура, которую ощущает одетый по сезону человек в тени. Характеристика душности погоды. При расчете учитывается влияние влажности воздуха и скорости ветра на теплоощущения человека.
Tes - Эффективная температура на солнце - температура, которую ощущает человек, с поправкой на солнечный нагрев. Характеристика знойности погоды. Зависит от высоты солнца над горизонтом, облачности и скорости ветра. Ночью, в пасмурную погоду, а также при ветре 12 м/с и более поправка равна нулю.
P - Атмосферное давление - приведенное к уровню моря атмосферное давление.
Po - Атмосферное давление - измеренное на уровне метеостанции атмосферное давление.
Tmin - Минимальная температура - минимум температуры воздуха на высоте 2 м над землей.
Tmax - Максимальная температура - максимум температуры воздуха на высоте 2 м над землей.
R - Количество осадков - Количество выпавших осадков за период времени, мм. При наведении курсора мыши на число - период времени, за который выпало указанное количество осадков.
R24 - Количество осадков - Количество выпавших осадков за 24 часа, мм.
S - Снежный покров - Высота снежного покрова, см. При наведении курсора мыши на число - состояние снежного покрова и степень покрытия местности в баллах.